Keokuk, IA

5:38 PM CST on February 09, 2016 (GMT -0600)
Keokuk Municipal

Weather History for KEOK - April, 2014

Change the Weather History Date:

Monday, April 28, 2014

  Actual Average Record
Temperature  
Mean Temperature 62 °F -  
Max Temperature 73 °F 69 °F 90 °F (1970)
Min Temperature 51 °F 46 °F 35 °F (1950)
Degree Days  
Heating Degree Days 3    
Growing Degree Days 12 (Base 50)    
Moisture  
Dew Point 54 °F    
Average Humidity 76    
Maximum Humidity 100    
Minimum Humidity 55    
Precipitation  
Precipitation 0.76 in - - ()
Sea Level Pressure  
Sea Level Pressure 29.42 in    
Wind  
Wind Speed 12 mph (SSE)    
Max Wind Speed 23 mph    
Max Gust Speed 39 mph    
Visibility 9 miles    
Events Rain    
Averages and records for this station are not official NWS values.
T = Trace of Precipitation, MM = Missing Value Source: NWS Daily Summary

Daily Weather History Graph

Daily Weather History Graph

Search for Another Location

Airport or City:

Trip Planner

Search our weather history database for the weather conditions in past years. The results will help you decide how hot, cold, wet, or windy it might be!

Date:

Astronomy

Apr. 28, 2014 Rise Set
Actual Time 6:08 AM CDT 7:58 PM CDT
Civil Twilight 5:39 AM CDT 8:27 PM CDT
Nautical Twilight 5:03 AM CDT 9:03 PM CDT
Astronomical Twilight 4:25 AM CDT 9:41 PM CDT
Moon 5:47 AM CDT (4/28) 7:36 PM CDT (4/28)
Length of Visible Light 14h 48m
Length of Day
13h 49m
Waning Crescent, 0% of the Moon is Illuminated
Apr 28
Waning Crescent
Apr 29
New
May 6
First Quarter
May 14
Full
May 21
Last Quarter

Hourly Weather History & Observations

Time (CDT) Temp. Dew Point Humidity Pressure Visibility Wind Dir Wind Speed Gust Speed Precip Events Conditions
12:15 AM 64.4 °F 62.6 °F 94% 29.53 in 6.0 mi SSE 16.1 mph 23.0 mph N/A   Overcast
12:35 AM 64.4 °F 62.6 °F 94% 29.57 in 5.0 mi South 10.4 mph 17.3 mph N/A   Overcast
12:55 AM 62.6 °F 62.6 °F 100% 29.56 in 3.0 mi SSE 6.9 mph 13.8 mph 0.14 in Rain Rain
1:15 AM 62.6 °F 62.6 °F 100% 29.54 in 3.0 mi SE 8.1 mph - N/A Rain Light Rain
1:35 AM 62.6 °F 62.6 °F 100% 29.53 in 3.0 mi SE 10.4 mph - N/A Rain Light Rain
1:55 AM 62.6 °F 60.8 °F 94% 29.52 in 3.0 mi SE 11.5 mph 23.0 mph 0.34 in Rain Light Rain
2:15 AM 62.6 °F 60.8 °F 94% 29.49 in 5.0 mi ESE 5.8 mph 15.0 mph N/A Rain Light Rain
2:35 AM 62.6 °F 60.8 °F 94% 29.46 in 10.0 mi East 8.1 mph - N/A   Mostly Cloudy
2:55 AM 62.6 °F 60.8 °F 94% 29.46 in 10.0 mi ESE 15.0 mph 20.7 mph 0.10 in   Overcast
3:15 AM 62.6 °F 60.8 °F 94% 29.47 in 10.0 mi SE 13.8 mph 19.6 mph N/A   Overcast
3:35 AM 60.8 °F 59.0 °F 94% 29.47 in 10.0 mi SE 9.2 mph - N/A   Partly Cloudy
3:55 AM 60.8 °F 59.0 °F 94% 29.47 in 10.0 mi SSE 10.4 mph - N/A   Clear
4:15 AM 60.8 °F 57.2 °F 88% 29.44 in 10.0 mi SE 11.5 mph - N/A   Clear
4:35 AM 60.8 °F 57.2 °F 88% 29.41 in 10.0 mi ESE 17.3 mph 23.0 mph N/A   Clear
4:55 AM 60.8 °F 57.2 °F 88% 29.37 in 10.0 mi ESE 23.0 mph 29.9 mph N/A   Clear
5:15 AM 62.6 °F 57.2 °F 82% 29.34 in 10.0 mi ESE 19.6 mph 39.1 mph N/A   Clear
5:35 AM 62.6 °F 57.2 °F 82% 29.34 in 10.0 mi ESE 15.0 mph 25.3 mph N/A   Partly Cloudy
5:55 AM 62.6 °F 57.2 °F 82% 29.38 in 10.0 mi SSE 12.7 mph - N/A   Clear
6:15 AM 62.6 °F 57.2 °F 82% 29.38 in 10.0 mi SSE 8.1 mph 15.0 mph N/A   Clear
6:35 AM 60.8 °F 57.2 °F 88% 29.39 in 10.0 mi South 5.8 mph 13.8 mph N/A   Clear
6:55 AM 60.8 °F 57.2 °F 88% 29.40 in 10.0 mi SSE 4.6 mph 12.7 mph N/A   Clear
7:15 AM 60.8 °F 57.2 °F 88% 29.42 in 10.0 mi SE 11.5 mph 19.6 mph N/A   Clear
7:35 AM 60.8 °F 57.2 °F 88% 29.41 in 10.0 mi ESE 15.0 mph 20.7 mph N/A   Clear
7:55 AM 60.8 °F 57.2 °F 88% 29.40 in 10.0 mi ESE 12.7 mph - N/A   Clear
8:15 AM 62.6 °F 57.2 °F 82% 29.39 in 10.0 mi ESE 15.0 mph - N/A   Clear
8:55 AM 64.4 °F 57.2 °F 77% 29.38 in 10.0 mi ESE 16.1 mph 26.5 mph N/A   Clear
9:15 AM 64.4 °F 57.2 °F 77% 29.40 in 10.0 mi SSE 10.4 mph 27.6 mph N/A   Clear
9:35 AM 66.2 °F 59.0 °F 78% 29.40 in 10.0 mi SE 18.4 mph 26.5 mph N/A   Partly Cloudy
9:55 AM 66.2 °F 59.0 °F 78% 29.39 in 10.0 mi SE 16.1 mph 25.3 mph N/A   Scattered Clouds
10:15 AM 68.0 °F 57.2 °F 68% 29.39 in 10.0 mi SSE 15.0 mph 23.0 mph N/A   Mostly Cloudy
10:35 AM 68.0 °F 57.2 °F 68% 29.39 in 10.0 mi SSE 15.0 mph 21.9 mph N/A   Mostly Cloudy
11:15 AM 69.8 °F 57.2 °F 64% 29.40 in 10.0 mi South 12.7 mph 20.7 mph N/A   Mostly Cloudy
11:35 AM 69.8 °F 57.2 °F 64% 29.39 in 10.0 mi South 17.3 mph 24.2 mph N/A   Overcast
12:15 PM 69.8 °F 57.2 °F 64% 29.39 in 10.0 mi South 15.0 mph 25.3 mph N/A   Mostly Cloudy
12:35 PM 71.6 °F 57.2 °F 60% 29.38 in 10.0 mi SSE 13.8 mph 20.7 mph N/A   Mostly Cloudy
12:55 PM 71.6 °F 57.2 °F 60% 29.37 in 10.0 mi South 13.8 mph 23.0 mph N/A   Mostly Cloudy
1:15 PM 73.4 °F 57.2 °F 57% 29.36 in 10.0 mi South 11.5 mph 24.2 mph N/A   Scattered Clouds
1:35 PM 71.6 °F 57.2 °F 60% 29.36 in 10.0 mi SSE 9.2 mph 21.9 mph N/A   Scattered Clouds
1:55 PM 71.6 °F 55.4 °F 57% 29.34 in 10.0 mi South 12.7 mph 21.9 mph N/A   Mostly Cloudy
2:15 PM 71.6 °F 55.4 °F 57% 29.34 in 9.0 mi SSE 10.4 mph 19.6 mph N/A   Scattered Clouds
2:35 PM 66.2 °F 57.2 °F 73% 29.35 in 2.5 mi South 17.3 mph 27.6 mph N/A Rain Rain
2:55 PM 62.6 °F 55.4 °F 77% 29.33 in 6.0 mi SSE 8.1 mph 16.1 mph 0.18 in Rain Heavy Rain
3:15 PM 62.6 °F 55.4 °F 77% 29.32 in 10.0 mi SSE 4.6 mph - N/A   Partly Cloudy
3:35 PM 64.4 °F 57.2 °F 77% 29.34 in 8.0 mi South 5.8 mph 12.7 mph N/A   Partly Cloudy
4:15 PM 64.4 °F 55.4 °F 73% 29.34 in 10.0 mi South 9.2 mph - N/A   Clear
4:35 PM 64.4 °F 55.4 °F 73% 29.35 in 10.0 mi South 12.7 mph - N/A   Scattered Clouds
4:55 PM 64.4 °F 55.4 °F 73% 29.36 in 10.0 mi SSW 9.2 mph 15.0 mph N/A   Mostly Cloudy
5:15 PM 64.4 °F 53.6 °F 68% 29.36 in 10.0 mi SW 11.5 mph 18.4 mph N/A   Mostly Cloudy
5:35 PM 64.4 °F 50.0 °F 59% 29.38 in 10.0 mi SW 19.6 mph 29.9 mph N/A   Overcast
5:55 PM 62.6 °F 50.0 °F 63% 29.40 in 10.0 mi WSW 16.1 mph 28.8 mph N/A   Mostly Cloudy
6:15 PM 60.8 °F 48.2 °F 63% 29.42 in 10.0 mi WSW 20.7 mph 31.1 mph N/A   Mostly Cloudy
6:35 PM 60.8 °F 46.4 °F 59% 29.43 in 10.0 mi SW 17.3 mph 28.8 mph N/A   Overcast
6:55 PM 59.0 °F 44.6 °F 59% 29.45 in 10.0 mi SW 20.7 mph 26.5 mph N/A   Scattered Clouds
7:15 PM 59.0 °F 42.8 °F 55% 29.44 in 10.0 mi SW 13.8 mph 21.9 mph N/A   Partly Cloudy
7:35 PM 59.0 °F 44.6 °F 59% 29.46 in 10.0 mi SW 8.1 mph 17.3 mph N/A   Clear
7:55 PM 57.2 °F 42.8 °F 59% 29.46 in 10.0 mi SW 5.8 mph - N/A   Clear
8:15 PM 55.4 °F 42.8 °F 63% 29.46 in 10.0 mi SSW 3.5 mph - N/A   Clear
8:35 PM 55.4 °F 42.8 °F 63% 29.45 in 10.0 mi SSW 3.5 mph - N/A   Clear
8:55 PM 55.4 °F 42.8 °F 63% 29.45 in 10.0 mi South 4.6 mph - N/A   Clear
9:15 PM 51.8 °F 44.6 °F 76% 29.45 in 10.0 mi SSE 4.6 mph - N/A   Clear
9:55 PM 53.6 °F 44.6 °F 72% 29.45 in 10.0 mi ESE 5.8 mph - N/A   Overcast
10:15 PM 53.6 °F 46.4 °F 77% 29.46 in 10.0 mi ESE 5.8 mph - N/A   Overcast
10:35 PM 53.6 °F 48.2 °F 82% 29.45 in 10.0 mi ESE 4.6 mph - N/A   Overcast
10:55 PM 55.4 °F 48.2 °F 77% 29.46 in 10.0 mi SE 6.9 mph - N/A   Overcast
11:15 PM 55.4 °F 46.4 °F 72% 29.45 in 10.0 mi SE 8.1 mph - N/A   Overcast
11:35 PM 55.4 °F 46.4 °F 72% 29.44 in 10.0 mi SE 9.2 mph - N/A   Overcast
11:55 PM 55.4 °F 46.4 °F 72% 29.43 in 10.0 mi SE 8.1 mph - N/A   Mostly Cloudy